{"data":{"norad_id":69794,"intl_designator":"1998-067YJ","name":"ISS OBJECT YJ","alt_names":[],"object_type":"PAYLOAD","status":"ACTIVE","operator":null,"country":"TBD","launch_date":"1998-11-20","launch_site_code":"TYMSC","launch_vehicle":null,"mission":null,"orbit_class":"UNKNOWN","rcs_meters":null,"size_class":null,"mass_kg":null,"dimensions":null,"purposes":[],"wikipedia_slug":null,"has_3d_model":false,"image_url":null,"decayed_at":null,"tle_current":{"epoch":"2026-09-18T02:07:03.030528Z","epoch_age_seconds":233870,"freshness":"STALE","line1":"1 69794U 98067YJ  26261.08822952  .00029166  00000+0  44990-3 0  9990","line2":"2 69794  51.6302 198.9304 0008436 163.6846 196.4417 15.53867441 12079","mean_motion":15.53867441,"eccentricity":0.0008436,"inclination_deg":51.6302,"raan_deg":198.9304,"arg_perigee_deg":163.6846,"mean_anomaly_deg":196.4417,"bstar":0.0004499,"rev_number":1207,"period_min":92.671997752478,"perigee_km":399.72420676378,"apogee_km":411.1694694154,"semimajor_km":6783.5838380896,"source":"CELESTRAK","updated_at":"2026-09-20T09:00:25.116860Z"}}}